Weather History for New Haven, CT

Change the Weather History Date:

Wednesday, February 5, 2014

  Actual Average Record
Temperature  
Mean Temperature 31 °F -  
Max Temperature 34 °F 37 °F 34 °F (2014)
Min Temperature 28 °F 24 °F 28 °F (2014)
Degree Days  
Heating Degree Days 34    
Moisture  
Dew Point 27 °F    
Average Humidity 87    
Maximum Humidity 93    
Minimum Humidity 75    
Precipitation  
Precipitation 0.74 in - - ()
Sea Level Pressure  
Sea Level Pressure 29.96 in    
Wind  
Wind Speed 7 mph (NNE)    
Max Wind Speed 14 mph    
Max Gust Speed 18 mph    
Visibility 4 miles    
Events Fog , Rain , Snow    
Averages and records for this station are not official NWS values.
T = Trace of Precipitation, MM = Missing Value Source: NWS Daily Summary

Daily Weather History Graph

Daily Weather History Graph

Search for Another Location

Airport:

Trip Planner

Search our weather history database for the weather conditions in past years. The results will help you decide how hot, cold, wet, or windy it might be!

Date:

Astronomy

Feb. 05, 2014 Rise Set
Actual Time 6:58 AM EST 5:13 PM EST
Civil Twilight 6:29 AM EST 5:42 PM EST
Nautical Twilight 5:56 AM EST 6:14 PM EST
Astronomical Twilight 5:24 AM EST 6:47 PM EST
Moon 10:07 AM EST (2/5) No Moon Set
Length of Visible Light 11h 12m
Length of Day
10h 14m
Waxing Crescent, 39% of the Moon is Illuminated
Feb 5
Waxing Crescent
Feb 6
First Quarter
Feb 14
Full
Feb 22
Last Quarter
Mar 1
New

Hourly Weather History & Observations

Time (EST) Temp. Windchill Dew Point Humidity Pressure Visibility Wind Dir Wind Speed Gust Speed Precip Events Conditions
12:53 AM 28.0 °F - 24.1 °F 85% 30.24 in 10.0 mi Calm Calm - N/A   Overcast
1:53 AM 30.0 °F 26.5 °F 23.0 °F 75% 30.25 in 10.0 mi NE 3.5 mph - N/A   Overcast
2:24 AM 28.4 °F 24.6 °F 23.0 °F 80% 30.22 in 6.0 mi NNE 3.5 mph - 0.00 in Snow Light Snow
2:33 AM 28.4 °F 23.3 °F 23.0 °F 80% 30.22 in 3.0 mi North 4.6 mph - 0.00 in Snow Light Snow
2:41 AM 28.4 °F 24.6 °F 23.0 °F 80% 30.22 in 1.8 mi North 3.5 mph - 0.00 in Snow Light Snow
2:53 AM 28.0 °F 22.8 °F 23.0 °F 81% 30.21 in 1.0 mi NNE 4.6 mph - 0.00 in Snow Light Snow
2:55 AM 28.4 °F 22.2 °F 24.8 °F 86% 30.21 in 0.8 mi NNE 5.8 mph - 0.00 in Snow Light Snow
3:20 AM 28.4 °F 21.2 °F 24.8 °F 86% 30.19 in 1.0 mi NNE 6.9 mph - 0.00 in Snow Light Snow
3:34 AM 28.4 °F 21.2 °F 24.8 °F 86% 30.18 in 0.8 mi NE 6.9 mph - 0.00 in Snow Light Snow
3:43 AM 28.4 °F 22.2 °F 24.8 °F 86% 30.17 in 0.8 mi NE 5.8 mph - 0.01 in Snow Light Snow
3:53 AM 28.0 °F 20.8 °F 25.0 °F 88% 30.17 in 0.8 mi NE 6.9 mph - 0.02 in Snow Light Snow
4:53 AM 28.9 °F 21.1 °F 26.1 °F 89% 30.12 in 0.2 mi NE 8.1 mph - 0.10 in Fog , Snow Heavy Snow
5:11 AM 28.4 °F 19.1 °F 26.6 °F 93% 30.10 in 0.2 mi NE 10.4 mph - 0.06 in Fog , Snow Heavy Snow
5:20 AM 28.4 °F 19.7 °F 26.6 °F 93% 30.09 in 0.2 mi NE 9.2 mph - 0.09 in Fog , Snow Heavy Snow
5:30 AM 28.4 °F 19.7 °F 26.6 °F 93% 30.09 in 0.5 mi NE 9.2 mph - 0.12 in Fog , Snow Snow
5:48 AM 28.4 °F 21.2 °F 26.6 °F 93% 30.09 in 0.5 mi NNE 6.9 mph - 0.16 in Fog , Snow Snow
5:53 AM 28.9 °F 21.9 °F 27.0 °F 92% 30.09 in 0.8 mi NNE 6.9 mph - 0.18 in Snow Light Snow
6:25 AM 28.4 °F 19.7 °F 26.6 °F 93% 30.05 in 1.0 mi NNE 9.2 mph - 0.09 in Snow Light Snow
6:37 AM 28.4 °F 19.1 °F 26.6 °F 93% 30.06 in 1.8 mi North 10.4 mph - 0.10 in Snow Light Snow
6:53 AM 28.9 °F 18.6 °F 26.1 °F 89% 30.06 in 1.8 mi North 12.7 mph - 0.12 in   Overcast
7:28 AM 28.4 °F 17.5 °F 26.6 °F 93% 30.06 in 1.5 mi NNE 13.8 mph - 0.05 in   Overcast
7:50 AM 28.4 °F 18.0 °F 26.6 °F 93% 30.02 in 0.8 mi NE 12.7 mph - 0.09 in   Mist
7:53 AM 28.9 °F 18.6 °F 26.1 °F 89% 30.03 in 0.8 mi NNE 12.7 mph - 0.10 in Snow Ice Pellets
8:05 AM 30.2 °F 20.2 °F 26.6 °F 86% 30.01 in 1.2 mi NNE 12.7 mph - 0.06 in Snow Ice Pellets
8:27 AM 30.2 °F 20.8 °F 28.4 °F 93% 29.97 in 2.5 mi NNE 11.5 mph - 0.12 in Rain Light Freezing Rain
8:37 AM 30.2 °F 21.3 °F 28.4 °F 93% 29.97 in 3.0 mi NE 10.4 mph - 0.13 in Rain Light Freezing Rain
8:53 AM 30.9 °F 22.2 °F 28.9 °F 92% 29.96 in 4.0 mi NE 10.4 mph 18.4 mph 0.14 in Rain Light Freezing Rain
9:53 AM 32.0 °F 23.0 °F 30.0 °F 92% 29.88 in 5.0 mi NE 11.5 mph - 0.08 in Rain Light Freezing Rain
10:29 AM 33.8 °F 25.8 °F 30.2 °F 87% 29.85 in 10.0 mi ENE 10.4 mph - 0.00 in   Overcast
10:30 AM 33.8 °F 27.0 °F 30.2 °F 87% 29.85 in 10.0 mi ENE 8.1 mph - 0.00 in   Overcast
10:53 AM 33.1 °F 25.5 °F 30.0 °F 89% 29.81 in 10.0 mi ENE 9.2 mph - 0.00 in   Drizzle
11:53 AM 33.1 °F 23.9 °F 30.0 °F 89% 29.69 in 10.0 mi NE 12.7 mph - 0.00 in   Drizzle
12:53 PM 34.0 °F 27.2 °F 30.0 °F 85% 29.66 in 3.0 mi NE 8.1 mph - 0.00 in Rain Light Rain
1:53 PM 34.0 °F 28.8 °F 30.9 °F 89% 29.65 in 10.0 mi North 5.8 mph - N/A   Overcast
2:07 PM 33.8 °F 29.6 °F 30.2 °F 87% 29.66 in 2.5 mi NNW 4.6 mph - N/A   Overcast
2:15 PM 33.8 °F 28.6 °F 30.2 °F 87% 29.66 in 1.5 mi NW 5.8 mph - N/A   Overcast
2:28 PM 33.8 °F 29.6 °F 30.2 °F 87% 29.66 in 1.2 mi North 4.6 mph - N/A Rain Light Rain
2:53 PM 33.1 °F 28.7 °F 30.9 °F 92% 29.65 in 1.5 mi North 4.6 mph - N/A   Light Drizzle
3:53 PM 33.1 °F 27.7 °F 30.9 °F 92% 29.64 in 3.0 mi North 5.8 mph - N/A   Light Drizzle
4:53 PM 30.9 °F 21.7 °F 28.0 °F 89% 29.65 in 6.0 mi North 11.5 mph 18.4 mph N/A   Overcast
5:53 PM 30.0 °F 20.0 °F 26.1 °F 85% 29.68 in 6.0 mi NNW 12.7 mph - N/A   Overcast
6:53 PM 30.0 °F 22.4 °F 26.1 °F 85% 29.71 in 5.0 mi NNW 8.1 mph - N/A Snow Light Snow
7:53 PM 28.9 °F 21.9 °F 26.1 °F 89% 29.76 in 6.0 mi North 6.9 mph - N/A Snow Light Snow
8:53 PM 28.9 °F 20.4 °F 24.1 °F 82% 29.78 in 10.0 mi North 9.2 mph 17.3 mph N/A   Overcast
9:53 PM 30.0 °F 21.7 °F 24.1 °F 79% 29.84 in 10.0 mi NNW 9.2 mph - N/A   Overcast
10:53 PM 30.0 °F 22.4 °F 24.1 °F 79% 29.88 in 10.0 mi NNW 8.1 mph - N/A   Overcast
11:53 PM 30.0 °F 23.2 °F 24.1 °F 79% 29.94 in 10.0 mi North 6.9 mph - N/A   Overcast